• In Österreich
  • Länderverzeichnis
  • Für 7 Tage
  • Wassertemperatur
  • Satellitenkarten
  • Wetterkarte
  • News
  • Widgets
  • user-avatar
    Anmelden

    Stündliche Wetter Sölden

    Heute, 23 Mai, Mittwoch

    Zeit Temperatur Niederschläge Wind Luftdruck Luftfeuchtigkeit
    00:00 +2°C° 0 mm 1 m/S 581 mmHg 90%
    01:00 +2°C° 0 mm 1 m/S 581 mmHg 90%
    02:00 +2°C° 0 mm 1 m/S 581 mmHg 89%
    03:00 +2°C° 0 mm 1 m/S 581 mmHg 89%
    04:00 +1°C° 0 mm 1 m/S 581 mmHg 89%
    05:00 +3°C° 0 mm 1 m/S 582 mmHg 84%
    06:00 +5°C° 0 mm 1 m/S 583 mmHg 79%
    07:00 +5°C° 0 mm 0 m/S 584 mmHg 74%
    08:00 +7°C° 0 mm 0 m/S 585 mmHg 67%
    09:00 +10°C° 0 mm 1 m/S 586 mmHg 61%
    10:00 +12°C° 0 mm 1 m/S 587 mmHg 55%
    11:00 +12°C° 0,3 mm 1 m/S 587 mmHg 55%
    12:00 +13°C° 0,3 mm 1 m/S 587 mmHg 55%
    13:00 +13°C° 0,3 mm 2 m/S 587 mmHg 55%
    14:00 +13°C° 0,6 mm 2 m/S 586 mmHg 58%
    15:00 +12°C° 0,6 mm 2 m/S 586 mmHg 61%
    16:00 +12°C° 0,6 mm 2 m/S 586 mmHg 64%
    17:00 +11°C° 0,7 mm 1 m/S 585 mmHg 71%
    18:00 +10°C° 0,7 mm 1 m/S 585 mmHg 77%
    19:00 +8°C° 0,7 mm 1 m/S 585 mmHg 84%
    20:00 +7°C° 0,3 mm 1 m/S 584 mmHg 87%
    21:00 +6°C° 0,3 mm 1 m/S 584 mmHg 90%
    22:00 +4°C° 0,3 mm 1 m/S 583 mmHg 93%
    23:00 +4°C° 0 mm 1 m/S 583 mmHg 93%

    Morgen, 24 Mai, Donnerstag

    Zeit Temperatur Niederschläge Wind Luftdruck Luftfeuchtigkeit
    00:00 +4°C° 0 mm 1 m/S 583 mmHg 93%
    01:00 +4°C° 0 mm 1 m/S 583 mmHg 93%
    02:00 +3°C° 0 mm 1 m/S 583 mmHg 93%
    03:00 +3°C° 0 mm 1 m/S 583 mmHg 92%
    04:00 +3°C° 0 mm 1 m/S 583 mmHg 92%
    05:00 +5°C° 0 mm 1 m/S 584 mmHg 86%
    06:00 +6°C° 0 mm 1 m/S 585 mmHg 81%
    07:00 +7°C° 0 mm 0 m/S 586 mmHg 75%
    08:00 +9°C° 0,1 mm 0 m/S 587 mmHg 68%
    09:00 +12°C° 0,1 mm 1 m/S 587 mmHg 61%
    10:00 +13°C° 0,1 mm 1 m/S 588 mmHg 53%
    11:00 +14°C° 0,6 mm 1 m/S 588 mmHg 53%
    12:00 +14°C° 0,6 mm 1 m/S 588 mmHg 53%
    13:00 +14°C° 0,6 mm 1 m/S 588 mmHg 52%
    14:00 +14°C° 1,1 mm 2 m/S 588 mmHg 55%
    15:00 +14°C° 1,1 mm 2 m/S 588 mmHg 59%
    16:00 +13°C° 1,1 mm 2 m/S 587 mmHg 62%
    17:00 +12°C° 0,9 mm 2 m/S 587 mmHg 69%
    18:00 +11°C° 0,9 mm 1 m/S 586 mmHg 76%
    19:00 +10°C° 0,9 mm 1 m/S 586 mmHg 82%
    20:00 +9°C° 0,4 mm 1 m/S 585 mmHg 86%
    21:00 +7°C° 0,4 mm 1 m/S 585 mmHg 89%
    22:00 +6°C° 0,4 mm 1 m/S 585 mmHg 92%
    23:00 +5°C° 0 mm 1 m/S 585 mmHg 92%

    übermorgen, 25 Mai, Freitag

    Zeit Temperatur Niederschläge Wind Luftdruck Luftfeuchtigkeit
    00:00 +5°C° 0 mm 1 m/S 584 mmHg 92%
    01:00 +4°C° 0 mm 1 m/S 584 mmHg 92%
    02:00 +4°C° 0 mm 1 m/S 584 mmHg 91%
    03:00 +4°C° 0 mm 1 m/S 584 mmHg 90%
    04:00 +4°C° 0 mm 1 m/S 584 mmHg 89%
    05:00 +5°C° 0 mm 1 m/S 585 mmHg 82%
    06:00 +7°C° 0 mm 1 m/S 585 mmHg 76%
    07:00 +9°C° 0 mm 1 m/S 586 mmHg 69%
    08:00 +11°C° 0 mm 1 m/S 587 mmHg 60%
    09:00 +13°C° 0 mm 1 m/S 588 mmHg 51%
    10:00 +15°C° 0 mm 1 m/S 589 mmHg 41%
    11:00 +16°C° 0,1 mm 1 m/S 589 mmHg 39%
    12:00 +18°C° 0,1 mm 1 m/S 590 mmHg 38%
    13:00 +17°C° 0,1 mm 2 m/S 590 mmHg 36%
    14:00 +17°C° 0,3 mm 2 m/S 589 mmHg 39%
    15:00 +17°C° 0,3 mm 2 m/S 589 mmHg 42%
    16:00 +16°C° 0,3 mm 2 m/S 589 mmHg 44%
    17:00 +15°C° 0,6 mm 2 m/S 588 mmHg 54%
    18:00 +13°C° 0,6 mm 2 m/S 588 mmHg 64%
    19:00 +12°C° 0,6 mm 1 m/S 587 mmHg 75%
    20:00 +10°C° 0,6 mm 1 m/S 587 mmHg 79%
    21:00 +9°C° 0,6 mm 1 m/S 586 mmHg 83%
    22:00 +7°C° 0,6 mm 1 m/S 586 mmHg 87%
    23:00 +7°C° 0,1 mm 1 m/S 586 mmHg 86%

    26 Mai, Samstag

    Zeit Temperatur Niederschläge Wind Luftdruck Luftfeuchtigkeit
    00:00 +6°C° 0,1 mm 1 m/S 585 mmHg 86%
    01:00 +6°C° 0,1 mm 1 m/S 585 mmHg 85%
    02:00 +5°C° 0 mm 1 m/S 585 mmHg 85%
    03:00 +5°C° 0 mm 1 m/S 585 mmHg 85%
    04:00 +5°C° 0 mm 1 m/S 585 mmHg 84%
    05:00 +7°C° 0 mm 1 m/S 586 mmHg 78%
    06:00 +9°C° 0 mm 1 m/S 587 mmHg 72%
    07:00 +10°C° 0 mm 0 m/S 588 mmHg 66%
    08:00 +12°C° 0 mm 0 m/S 589 mmHg 58%
    09:00 +15°C° 0 mm 1 m/S 590 mmHg 50%
    10:00 +18°C° 0 mm 1 m/S 591 mmHg 41%
    11:00 +18°C° 0,1 mm 1 m/S 591 mmHg 40%
    12:00 +19°C° 0,1 mm 1 m/S 591 mmHg 39%
    13:00 +20°C° 0,1 mm 1 m/S 592 mmHg 37%
    14:00 +18°C° 0,3 mm 2 m/S 591 mmHg 40%
    15:00 +18°C° 0,3 mm 2 m/S 591 mmHg 42%
    16:00 +18°C° 0,3 mm 2 m/S 591 mmHg 45%
    17:00 +16°C° 0,4 mm 2 m/S 590 mmHg 55%
    18:00 +14°C° 0,4 mm 1 m/S 590 mmHg 65%
    19:00 +13°C° 0,4 mm 1 m/S 589 mmHg 76%
    20:00 +11°C° 0,5 mm 1 m/S 589 mmHg 78%
    21:00 +10°C° 0,5 mm 1 m/S 588 mmHg 80%
    22:00 +8°C° 0,5 mm 0 m/S 588 mmHg 83%
    23:00 +8°C° 0,1 mm 1 m/S 588 mmHg 82%

    27 Mai, Sonntag

    Zeit Temperatur Niederschläge Wind Luftdruck Luftfeuchtigkeit
    00:00 +8°C° 0,1 mm 1 m/S 587 mmHg 82%
    01:00 +8°C° 0,1 mm 1 m/S 587 mmHg 81%
    02:00 +7°C° 0 mm 1 m/S 587 mmHg 80%
    03:00 +7°C° 0 mm 1 m/S 587 mmHg 80%
    04:00 +7°C° 0 mm 1 m/S 586 mmHg 79%
    05:00 +9°C° 0 mm 1 m/S 587 mmHg 74%
    06:00 +10°C° 0 mm 1 m/S 588 mmHg 69%
    07:00 +12°C° 0 mm 1 m/S 589 mmHg 64%
    08:00 +14°C° 0 mm 1 m/S 590 mmHg 57%
    09:00 +16°C° 0 mm 1 m/S 591 mmHg 49%
    10:00 +19°C° 0 mm 1 m/S 591 mmHg 42%
    11:00 +19°C° 0,2 mm 1 m/S 591 mmHg 41%
    12:00 +20°C° 0,2 mm 1 m/S 592 mmHg 40%
    13:00 +20°C° 0,2 mm 1 m/S 592 mmHg 40%
    14:00 +20°C° 0,6 mm 1 m/S 591 mmHg 43%
    15:00 +18°C° 0,6 mm 2 m/S 591 mmHg 45%
    16:00 +18°C° 0,6 mm 2 m/S 590 mmHg 48%
    17:00 +16°C° 0,9 mm 1 m/S 590 mmHg 58%
    18:00 +14°C° 0,9 mm 1 m/S 589 mmHg 69%
    19:00 +13°C° 0,9 mm 1 m/S 588 mmHg 79%
    20:00 +12°C° 0,7 mm 1 m/S 588 mmHg 79%
    21:00 +11°C° 0,7 mm 1 m/S 588 mmHg 80%
    22:00 +10°C° 0,7 mm 1 m/S 588 mmHg 80%
    23:00 +10°C° 0,1 mm 1 m/S 588 mmHg 81%

    28 Mai, Montag

    Zeit Temperatur Niederschläge Wind Luftdruck Luftfeuchtigkeit
    00:00 +9°C° 0,1 mm 1 m/S 587 mmHg 81%
    01:00 +9°C° 0,1 mm 1 m/S 587 mmHg 81%
    02:00 +8°C° 0 mm 1 m/S 586 mmHg 82%
    03:00 +8°C° 0 mm 1 m/S 586 mmHg 82%
    04:00 +7°C° 0 mm 1 m/S 586 mmHg 82%
    05:00 +9°C° 0 mm 1 m/S 587 mmHg 76%
    06:00 +11°C° 0 mm 1 m/S 588 mmHg 70%
    07:00 +12°C° 0 mm 1 m/S 589 mmHg 65%
    08:00 +14°C° 0 mm 1 m/S 589 mmHg 57%
    09:00 +16°C° 0 mm 1 m/S 590 mmHg 49%
    10:00 +19°C° 0 mm 1 m/S 591 mmHg 41%
    11:00 +20°C° 0,2 mm 1 m/S 591 mmHg 41%
    12:00 +20°C° 0,2 mm 1 m/S 591 mmHg 40%
    13:00 +19°C° 0,2 mm 2 m/S 591 mmHg 40%
    14:00 +19°C° 0,5 mm 2 m/S 590 mmHg 44%
    15:00 +18°C° 0,5 mm 2 m/S 590 mmHg 48%
    16:00 +17°C° 0,5 mm 2 m/S 589 mmHg 53%
    17:00 +16°C° 0,8 mm 2 m/S 589 mmHg 61%
    18:00 +15°C° 0,8 mm 2 m/S 588 mmHg 69%
    19:00 +14°C° 0,8 mm 1 m/S 587 mmHg 77%
    20:00 +12°C° 0,4 mm 1 m/S 587 mmHg 82%
    21:00 +11°C° 0,4 mm 1 m/S 587 mmHg 86%
    22:00 +10°C° 0,4 mm 1 m/S 586 mmHg 91%
    23:00 +9°C° 0 mm 1 m/S 586 mmHg 92%
    Mehr zeigen